Regional Weather Roundup
Issued by NWS Albany, NY

Home | Current Version | Previous Version | Graphics & Text | Print | Product List | Glossary Off
Versions: 1 2 3 4 5 6 7 8 9 10 11 12 13 14 15 16 17 18 19 20 21 22 23 24 25 26 27 28 29 30 31 32 33 34 35 36 37 38 39 40 41 42 43 44 45 46 47 48 49 50

000
ASUS41 KALY 100810
RWRALY

NEW YORK STATE HOURLY WEATHER ROUNDUP
NATIONAL WEATHER SERVICE ALBANY NY
300 AM EST WED FEB 10 2016

NOTE: "FAIR" INDICATES FEW OR NO CLOUDS BELOW 12,000 FEET WITH NO
SIGNIFICANT WEATHER AND/OR NO OBSTRUCTIONS TO VISIBILITY.

NYZ032-033-038>043-046>054-057>066-NYZ062>081-100900-
EAST


CITY           SKY/WX    TMP DP  RH WIND       PRES   REMARKS
ALBANY         FLURRIES  28  24  85 S6        29.55S WCI  22
GLENS FALLS    CLOUDY    23  21  92 CALM      29.54S FOG
POUGHKEEPSIE   CLOUDY    31  25  78 SE3       29.56F
MONTGOMERY     CLOUDY    29  26  89 SW3       29.54F FOG
WHITE PLAINS   LGT SNOW  28  25  88 CALM      29.56F VSB 1
ISLIP          CLOUDY    28  24  85 CALM      29.58S FOG
NEW YORK CITY  LGT SNOW  33  28  81 E5        29.58F FOG     WCI  29
CENTRAL PARK   CLOUDY    33  29  85 W7        29.60F FOG     WCI  27
$$

NYZ005>009-017-018-044>046-055-056-100900-
CENTRAL


CITY           SKY/WX    TMP DP  RH WIND       PRES   REMARKS
FULTON         CLOUDY    30  27  88 CALM      29.51S
SYRACUSE       CLOUDY    26  26 100 CALM      29.51F
ROME           CLOUDY    26  24  92 E6        29.53F WCI  19
ELMIRA         MOCLDY    28  24  85 SW8       29.52S WCI  20
BINGHAMTON     CLOUDY    27  25  92 W7        29.48S WCI  19
MONTICELLO     CLOUDY    27  27 100 CALM      29.51S
$$

NYZ026>034-041>043-100900-
NORTH


CITY           SKY/WX    TMP DP  RH WIND       PRES   REMARKS
WATERTOWN      CLOUDY    25  22  88 CALM      29.50F
FORT DRUM      NOT AVBL
MASSENA        CLOUDY    20  15  81 NE5       29.54F WCI  13
SARANAC LAKE   CLOUDY    23  21  92 W3        29.41F
PLATTSBURGH    CLOUDY    22  19  89 CALM      29.51F
$$

NYZ001>004-010>016-019>021-100900-
WEST


CITY           SKY/WX    TMP DP  RH WIND       PRES   REMARKS
NIAGARA FALLS  FLURRIES  30  24  78 W17       29.50R WCI  18
BUFFALO        LGT SNOW  29  25  85 W18G26    29.50S VSB 1   WCI  16
DUNKIRK        LGT SNOW  28  26  92 W18G28    29.58R VSB 1   WCI  15
JAMESTOWN      CLOUDY    25  19  80 W13       29.53R WCI  13
WELLSVILLE     CLOUDY    25  17  72 W14G25    29.49R WCI  13
ROCHESTER      FLURRIES  33  24  69 W16G23    29.49F WCI  23
PENN YAN       MOCLDY    32  20  61 W15G21    29.50S WCI  22
$$

             KEY
       WCI = WIND CHILL INDEX
       VSB = VISIBILITY
       HX  = HEAT INDEX
$$



USA.gov is the U.S. government's official web portal to all federal, state and local government web resources and services.